Location: Brown Observing Site
(43.4354°N, 116.3366°W)
Time: 05:33:00
(UTC-06:00)

ISS - Visible Passes

Search period start: 16 October 2019 00:00
Search period end: 26 October 2019 00:00
Orbit: 411 x 421 km, 51.6° (Epoch: 16 October)

Date Brightness Start Highest point End Pass type
(mag) Time Alt. Az. Time Alt. Az. Time Alt. Az.
23 Oct -1.2 07:19:35 10° S 07:22:17 22° SE 07:24:59 10° E visible
24 Oct -0.8 06:32:10 10° SSE 06:33:54 14° SE 06:35:39 10° E visible
25 Oct -3.2 07:18:21 10° SW 07:21:40 59° SE 07:24:59 10° ENE visible
